Regional Weather Roundup
Issued by NWS San Angelo, TX

Home | Current Version | Previous Version | Text Only | Print | Product List | Glossary On
Versions: 1 2 3 4 5 6 7 8 9 10 11 12 13 14 15 16 17 18 19 20 21 22 23 24 25 26 27 28 29 30 31 32 33 34 35 36 37 38 39 40 41 42 43 44 45 46 47 48 49 50
000
ASUS44 KSJT 281110
RWRSJT
WEST CENTRAL TEXAS REGIONAL WEATHER ROUNDUP
NATIONAL WEATHER SERVICE SAN ANGELO TX
600 AM CDT THU AUG 28 2014

NOTE: "FAIR" INDICATES FEW OR NO CLOUDS BELOW 12,000 FEET WITH NO
SIGNIFICANT WEATHER AND/OR OBSTRUCTIONS TO VISIBILITY.

TXZ049-054-064>066-071>073-076>078-098-099-113-114-127-128-139-140-
154-155-168>170-281200
...LOCATIONS ACROSS WEST CENTRAL TEXAS...

CITY           SKY/WX    TMP DP  RH WIND       PRES   REMARKS
SAN ANGELO     CLEAR     76  61  59 S5        29.99R
ABILENE        CLEAR     75  57  53 SE9       29.99S
DYESS AFB      PTCLDY    74  60  61 SE9       29.97F
JUNCTION       CLEAR     75  65  70 CALM      30.00R
SWEETWATER     MOCLDY    76  60  56 S10       30.03F
BROWNWOOD      PTCLDY    72  59  64 CALM      29.99S
COLEMAN        SUNNY     73  57  59 CALM      30.00R
SONORA         CLEAR     75  64  69 S3        30.05R
OZONA          FAIR      73  59  60 S7        30.03S
BRADY          CLEAR     72  59  64 SE3       29.99S
$$

TEXAS PANHANDLE/OKLAHOMA PANHANDLE

CITY           SKY/WX    TMP DP  RH WIND       PRES   REMARKS
AMARILLO       PTCLDY    67  62  84 S9        30.05S
BORGER         MOCLDY    71  63  75 SW5       30.01F
CANADIAN       CLOUDY    74  66  75 S10       29.96F
DALHART        CLEAR     60  54  80 W3        30.07S
DUMAS          MOSUNNY   64  60  87 SW10      30.03F
GUYMON         NOT AVBL
HEREFORD       MOSUNNY   64  62  93 W7        30.07S
PAMPA          PTSUNNY   68  62  79 S12       30.02F
PERRYTON       PTCLDY    69  64  84 S10       29.98S
$$

SOUTHERN PANHANDLE/SOUTH PLAINS/ROLLING PLAINS

CITY           SKY/WX    TMP DP  RH WIND       PRES   REMARKS
LUBBOCK        MOCLDY    74  62  66 SE8       30.03F
SNYDER         MOCLDY    77  61  57 SE8       30.01F
CHILDRESS      CLOUDY    77  63  61 S9        29.98S
SEMINOLE       MOSUNNY   71  58  64 CALM      30.04S
$$

PERMIAN BASIN

CITY           SKY/WX    TMP DP  RH WIND       PRES   REMARKS
MIDLAND        PTCLDY    75  60  59 SE6       30.01S
ODESSA         PTCLDY    78  59  51 S8        30.02S
WINK           CLEAR     77  59  53 SE8       29.97S
$$

FAR WEST/SOUTHWEST MOUNTAINS/TRANS PECOS

CITY           SKY/WX    TMP DP  RH WIND       PRES   REMARKS
ALPINE         SUNNY     67  58  72 SW6       30.17S
DRYDEN           N/A     82  60  47 E10       29.96S
EL PASO        CLEAR     73  60  63 N5        30.08F
FORT STOCKTON  PTCLDY    77  59  53 S8        30.02S
GUADALUPE PASS CLOUDY    67  58  72 S6        30.19R
MARFA          PTCLDY    63  55  77 N5        30.17S
PECOS          MOSUNNY   74  58  56 SW8       29.98S
$$

DALLAS/FORT WORTH METROPLEX

CITY           SKY/WX    TMP DP  RH WIND       PRES   REMARKS
DFW AIRPORT    CLEAR     77  61  57 SE5       29.96R
FTW MEACHAM    CLEAR     76  64  66 SE6       29.95F
DAL-EXECUTIVE  CLEAR     76  62  62 S3        29.96S
GRAND PRAIRIE  CLEAR     76  64  66 CALM      29.98R
ADDISON        CLEAR     77  61  57 SE6       29.97F
MESQUITE       NOT AVBL
LANCASTER      SUNNY     68  59  73 CALM      29.97S
$$

NORTH CENTRAL TEXAS

CITY           SKY/WX    TMP DP  RH WIND       PRES   REMARKS
SHRMAN/DENISON SUNNY     75  63  65 SE8       29.98S
GAINESVILLE    CLEAR     70  64  81 CALM      29.99S
BRIDGEPORT     SUNNY     69  60  73 CALM      29.98S
DENTON         CLEAR     70  64  81 CALM      29.96S
WAXAHACHIE     SUNNY     72  62  70 CALM      29.98S
GRANBURY       SUNNY     76  62  62 CALM      29.97S
$$

WESTERN NORTH TEXAS

CITY           SKY/WX    TMP DP  RH WIND       PRES   REMARKS
WICHITA FALLS  CLEAR     72  62  71 SE7       29.95F
VERNON         MOSUNNY   76  61  58 S6        29.96S
BRECKENRIDGE   SUNNY     77  57  49 S6        29.96S
COMANCHE         N/A     72  61  67 S3        29.99R
$$

CENTRAL AND SOUTH CENTRAL TEXAS

CITY           SKY/WX    TMP DP  RH WIND       PRES   REMARKS
AUSTIN/BERGSTM PTCLDY    71  67  87 CALM      29.94S
WACO           CLEAR     72  65  78 CALM      29.96S
HILLSBORO      SUNNY     74  67  77 SE5       29.96S
TEMPLE         CLEAR     70  61  73 NW3       29.96R
KILLEEN-GRAY   CLEAR     73  66  78 SE7       29.96S
FORT HOOD      CLEAR     75  67  76 CALM      29.97R
GEORGETOWN     CLEAR     72  64  78 CALM      29.97S
LAGO VISTA     FAIR      74  69  82 CALM      29.98S
SAN MARCOS     CLEAR     72  63  73 CALM      29.96S
NEW BRAUNFELS  CLEAR     73  68  84 NE3       29.92F
RANDOLPH AFB   PTCLDY    72  67  84 N5        29.94S
SAN ANTONIO    CLEAR     76  70  82 N5        29.94F
STINSON        CLEAR     76  70  82 NE3       29.92S
PLEASANTON     NOT AVBL
LA GRANGE      CLEAR     75  73  92 CALM      29.91F
GIDDINGS       SUNNY     74  70  87 CALM      29.98S
$$

EAST TEXAS

CITY           SKY/WX    TMP DP  RH WIND       PRES   REMARKS
PARIS          PTCLDY    72  61  68 E6        29.99S
CLARKSVILLE    SUNNY     73  65  77 E3        29.98S
TYLER          PTCLDY    74  67  78 CALM      29.97S
LONGVIEW       PTCLDY    73  67  81 CALM      29.97S
PALESTINE      MOSUNNY   72  70  94 CALM      29.97S
NACOGDOCHES    CLEAR     70  66  88 CALM      29.97S
$$

TEXAS HILL COUNTRY AND EDWARDS PLATEAU

CITY           SKY/WX    TMP DP  RH WIND       PRES   REMARKS
LLANO          SUNNY     72  63  73 CALM      30.00S
HORSESHOE BAY  FAIR      71  67  86 CALM      29.97S
KERRVILLE      CLEAR     69  64  84 CALM      29.99S
FREDERICKSBRG  CLEAR     69  64  83 CALM      29.99S
ROCKSPRINGS    SUNNY     73  66  78 SE7       30.03S
HONDO            N/A    N/A N/A N/A MISG      29.96S
UVALDE         SUNNY     73  67  80 NE5       29.95S
DEL RIO        CLEAR     79  64  60 E8        29.93S
$$

SOUTHEAST TEXAS

CITY           SKY/WX    TMP DP  RH WIND       PRES   REMARKS
COLLEGE STN    CLEAR     76  71  85 NE3       29.94S
CALDWELL       SUNNY     73  72  94 CALM      29.98R
CROCKETT       SUNNY     73  73 100 NE5       29.98S
BRENHAM        CLEAR     76  73  90 CALM      29.94S
HUNTSVILLE     CLEAR     73  70  90 CALM      29.94F
CONROE         CLEAR     72  70  93 CALM      29.94S
HOUSTON BUSH   PTCLDY    77  73  88 N3        29.92S
HOUSTON HOBBY  PTCLDY    79  73  83 S3        29.91S
PERLAND        PTCLDY    79  74  84 E9        29.92R
WHARTON        SUNNY     75  73  94 NE3       29.90F
$$

THE UPPER TEXAS COAST

CITY           SKY/WX    TMP DP  RH WIND       PRES   REMARKS
ORANGE         MOSUNNY   76  76 100 NE3       29.94F
PORT ARTHUR    PTCLDY    79  75  87 E8        29.92S
GALVESTON      LGT RAIN  79  76  90 E6        29.90F
ANGLETON       MOCLDY    75  73  93 NE5       29.89F
BAY CITY       DRIZZLE   79  79 100 CALM      29.89S
$$

TEXAS COASTAL BEND, RIO GRANDE PLAINS DEEP SOUTH TEXAS

CITY           SKY/WX    TMP DP  RH WIND       PRES   REMARKS
VICTORIA       CLEAR     78  75  90 NE6       29.89S
BEEVILLE       PTSUNNY   79  73  83 N7        29.89S
ROCKPORT       MOCLDY    79  76  90 E5        29.85S
PORT ARANSAS   MOSUNNY   79  75  87 E6        29.84S
PORT LAVACA    SUNNY     77  75  95 NE9       29.87F
CORPUS CHRISTI PTCLDY    81  77  88 E3        29.84F
KINGSVILLE NAS CLOUDY    82  77  84 N6        29.85S
COTULLA        CLEAR     77  68  73 E5        29.91F
LAREDO         CLEAR     80  70  71 CALM      29.92F
BROWNSVILLE    CLOUDY    81  77  89 W9        29.83S
PORT ISABEL    PTCLDY    80  75  84 W6        29.82R
HEBBRONVILLE   SUNNY     76  72  85 CALM      29.89F
MCALLEN        MOCLDY    81  75  82 W9        29.85F
WESLACO        CLOUDY    80  73  81 W7        29.83F
FALFURRIAS     SUNNY     76  69  80 N5        29.84F
EDINBURG       PTSUNNY   81  73  78 W8        29.84F
$$



USA.gov is the U.S. government's official web portal to all federal, state and local government web resources and services.